When you browse on this site, cookies collect data to enhance your experience and personalize the content and advertising you see.
Visit our Privacy Policy to learn more. By continuing to use the site, you agree to this use of cookies and data.
  • In Czech Republic
  • List of Countries
  • For 7 days
  • Water Temperature
  • Weather Map
  • Weather Widgets
  • user-avatar
    Login

    Hourly Weather Shusha

    Today, 16 September, Monday

    Time Temperature Precipitation Wind Pressure Humidity
    00:00 +15°C° 0.2 mm 1 mps 663 mmHg 76%
    01:00 +15°C° 0.2 mm 1 mps 662 mmHg 78%
    02:00 +14°C° 0.2 mm 1 mps 662 mmHg 80%
    03:00 +13°C° 0.2 mm 0 mps 662 mmHg 82%
    04:00 +13°C° 0.1 mm 0 mps 662 mmHg 81%
    05:00 +13°C° 0.1 mm 0 mps 662 mmHg 81%
    06:00 +13°C° 0.1 mm 0 mps 663 mmHg 81%
    07:00 +15°C° 0.1 mm 1 mps 663 mmHg 74%
    08:00 +18°C° 0.1 mm 1 mps 663 mmHg 68%
    09:00 +20°C° 0.1 mm 1 mps 663 mmHg 61%
    10:00 +20°C° 0 mm 2 mps 663 mmHg 59%
    11:00 +21°C° 0 mm 2 mps 663 mmHg 56%
    12:00 +21°C° 0 mm 3 mps 662 mmHg 54%
    13:00 +22°C° 0 mm 3 mps 662 mmHg 54%
    14:00 +23°C° 0 mm 2 mps 661 mmHg 53%
    15:00 +23°C° 0 mm 2 mps 661 mmHg 53%
    16:00 +21°C° 0 mm 2 mps 660 mmHg 60%
    17:00 +19°C° 0 mm 2 mps 659 mmHg 66%
    18:00 +19°C° 0 mm 1 mps 659 mmHg 73%
    19:00 +18°C° 0 mm 1 mps 659 mmHg 76%
    20:00 +18°C° 0 mm 1 mps 659 mmHg 80%
    21:00 +16°C° 0 mm 1 mps 659 mmHg 83%
    22:00 +16°C° 0 mm 1 mps 659 mmHg 83%
    23:00 +16°C° 0 mm 1 mps 659 mmHg 82%

    Tomorrow, 17 September, Tuesday

    Time Temperature Precipitation Wind Pressure Humidity
    00:00 +15°C° 0 mm 1 mps 658 mmHg 81%
    01:00 +15°C° 0 mm 1 mps 658 mmHg 79%
    02:00 +15°C° 0 mm 1 mps 658 mmHg 78%
    03:00 +15°C° 0 mm 1 mps 658 mmHg 76%
    04:00 +15°C° 0 mm 1 mps 658 mmHg 73%
    05:00 +15°C° 0 mm 1 mps 658 mmHg 70%
    06:00 +15°C° 0 mm 1 mps 658 mmHg 67%
    07:00 +19°C° 0 mm 1 mps 659 mmHg 59%
    08:00 +21°C° 0 mm 1 mps 659 mmHg 51%
    09:00 +24°C° 0 mm 1 mps 660 mmHg 42%
    10:00 +25°C° 0 mm 2 mps 660 mmHg 39%
    11:00 +26°C° 0 mm 2 mps 660 mmHg 35%
    12:00 +28°C° 0 mm 2 mps 660 mmHg 32%
    13:00 +28°C° 0 mm 2 mps 659 mmHg 31%
    14:00 +28°C° 0 mm 3 mps 659 mmHg 31%
    15:00 +28°C° 0 mm 3 mps 658 mmHg 31%
    16:00 +26°C° 0 mm 2 mps 657 mmHg 39%
    17:00 +24°C° 0 mm 2 mps 657 mmHg 48%
    18:00 +22°C° 0 mm 1 mps 656 mmHg 57%
    19:00 +21°C° 0 mm 1 mps 657 mmHg 58%
    20:00 +21°C° 0 mm 1 mps 657 mmHg 60%
    21:00 +20°C° 0 mm 1 mps 658 mmHg 61%
    22:00 +19°C° 0 mm 1 mps 658 mmHg 66%
    23:00 +18°C° 0 mm 1 mps 658 mmHg 70%

    Day after tomorrow, 18 September, Wednesday

    Time Temperature Precipitation Wind Pressure Humidity
    00:00 +16°C° 0 mm 1 mps 658 mmHg 75%
    01:00 +16°C° 0 mm 1 mps 659 mmHg 76%
    02:00 +16°C° 0 mm 1 mps 659 mmHg 76%
    03:00 +15°C° 0 mm 2 mps 659 mmHg 77%
    04:00 +15°C° 0 mm 1 mps 659 mmHg 77%
    05:00 +15°C° 0 mm 1 mps 659 mmHg 76%
    06:00 +15°C° 0 mm 1 mps 660 mmHg 75%
    07:00 +18°C° 0 mm 1 mps 661 mmHg 68%
    08:00 +20°C° 0 mm 1 mps 662 mmHg 60%
    09:00 +21°C° 0 mm 2 mps 663 mmHg 52%
    10:00 +23°C° 0 mm 2 mps 663 mmHg 49%
    11:00 +24°C° 0 mm 2 mps 663 mmHg 46%
    12:00 +25°C° 0 mm 3 mps 663 mmHg 44%
    13:00 +25°C° 0 mm 3 mps 662 mmHg 43%
    14:00 +25°C° 0 mm 3 mps 662 mmHg 43%
    15:00 +25°C° 0 mm 3 mps 662 mmHg 42%
    16:00 +24°C° 0 mm 2 mps 661 mmHg 46%
    17:00 +21°C° 0 mm 2 mps 661 mmHg 51%
    18:00 +21°C° 0 mm 1 mps 661 mmHg 55%
    19:00 +20°C° 0 mm 1 mps 661 mmHg 57%
    20:00 +20°C° 0 mm 1 mps 661 mmHg 58%
    21:00 +19°C° 0 mm 1 mps 661 mmHg 60%
    22:00 +19°C° 0 mm 1 mps 661 mmHg 60%
    23:00 +18°C° 0 mm 1 mps 660 mmHg 60%

    19 September, Thursday

    Time Temperature Precipitation Wind Pressure Humidity
    00:00 +18°C° 0 mm 1 mps 660 mmHg 60%
    01:00 +18°C° 0 mm 1 mps 660 mmHg 58%
    02:00 +18°C° 0 mm 1 mps 660 mmHg 56%
    03:00 +18°C° 0 mm 1 mps 660 mmHg 55%
    04:00 +16°C° 0 mm 1 mps 660 mmHg 54%
    05:00 +16°C° 0 mm 1 mps 660 mmHg 53%
    06:00 +16°C° 0 mm 1 mps 659 mmHg 52%
    07:00 +19°C° 0 mm 1 mps 660 mmHg 48%
    08:00 +22°C° 0 mm 1 mps 661 mmHg 43%
    09:00 +24°C° 0 mm 1 mps 662 mmHg 39%
    10:00 +25°C° 0 mm 2 mps 662 mmHg 37%
    11:00 +26°C° 0 mm 2 mps 662 mmHg 36%
    12:00 +27°C° 0 mm 3 mps 662 mmHg 34%
    13:00 +27°C° 0 mm 3 mps 662 mmHg 33%
    14:00 +27°C° 0 mm 3 mps 662 mmHg 33%
    15:00 +27°C° 0 mm 3 mps 662 mmHg 32%
    16:00 +25°C° 0 mm 3 mps 661 mmHg 37%
    17:00 +24°C° 0 mm 2 mps 661 mmHg 41%
    18:00 +22°C° 0 mm 1 mps 661 mmHg 46%
    19:00 +21°C° 0 mm 1 mps 661 mmHg 50%
    20:00 +20°C° 0 mm 1 mps 661 mmHg 54%
    21:00 +19°C° 0 mm 1 mps 661 mmHg 58%
    22:00 +18°C° 0 mm 1 mps 661 mmHg 63%
    23:00 +18°C° 0 mm 1 mps 661 mmHg 67%

    20 September, Friday

    Time Temperature Precipitation Wind Pressure Humidity
    00:00 +16°C° 0 mm 1 mps 660 mmHg 71%
    01:00 +15°C° 0 mm 1 mps 660 mmHg 75%
    02:00 +15°C° 0 mm 1 mps 660 mmHg 78%
    03:00 +15°C° 0 mm 1 mps 660 mmHg 82%
    04:00 +14°C° 0 mm 1 mps 659 mmHg 83%
    05:00 +13°C° 0 mm 0 mps 659 mmHg 85%
    06:00 +13°C° 0 mm 0 mps 659 mmHg 86%
    07:00 +15°C° 0 mm 1 mps 660 mmHg 81%
    08:00 +16°C° 0 mm 1 mps 660 mmHg 76%
    09:00 +19°C° 0 mm 1 mps 660 mmHg 71%
    10:00 +19°C° 0 mm 2 mps 660 mmHg 67%
    11:00 +20°C° 0 mm 2 mps 660 mmHg 63%
    12:00 +21°C° 0 mm 2 mps 660 mmHg 59%
    13:00 +23°C° 0 mm 2 mps 659 mmHg 58%
    14:00 +23°C° 0 mm 2 mps 658 mmHg 56%
    15:00 +24°C° 0 mm 2 mps 658 mmHg 54%
    16:00 +21°C° 0 mm 2 mps 657 mmHg 60%
    17:00 +21°C° 0 mm 1 mps 657 mmHg 66%
    18:00 +19°C° 0 mm 1 mps 656 mmHg 73%
    19:00 +19°C° 0 mm 1 mps 656 mmHg 74%
    20:00 +18°C° 0 mm 1 mps 656 mmHg 75%
    21:00 +18°C° 0 mm 1 mps 656 mmHg 77%
    22:00 +16°C° 0 mm 1 mps 656 mmHg 77%
    23:00 +15°C° 0 mm 0 mps 656 mmHg 78%

    21 September, Saturday

    Time Temperature Precipitation Wind Pressure Humidity
    00:00 +15°C° 0 mm 0 mps 656 mmHg 79%
    01:00 +14°C° 0 mm 0 mps 656 mmHg 81%
    02:00 +14°C° 0 mm 0 mps 655 mmHg 83%
    03:00 +13°C° 0 mm 0 mps 655 mmHg 86%
    04:00 +13°C° 0 mm 0 mps 655 mmHg 86%
    05:00 +13°C° 0 mm 0 mps 655 mmHg 86%
    06:00 +13°C° 0 mm 0 mps 655 mmHg 86%
    07:00 +15°C° 0 mm 1 mps 655 mmHg 80%
    08:00 +18°C° 0 mm 1 mps 656 mmHg 73%
    09:00 +19°C° 0 mm 2 mps 656 mmHg 67%
    10:00 +20°C° 0 mm 2 mps 656 mmHg 63%
    11:00 +21°C° 0 mm 3 mps 656 mmHg 59%
    12:00 +22°C° 0 mm 3 mps 656 mmHg 56%
    13:00 +22°C° 0 mm 3 mps 656 mmHg 55%
    14:00 +22°C° 0 mm 3 mps 655 mmHg 55%
    15:00 +22°C° 0 mm 3 mps 655 mmHg 54%
    16:00 +21°C° 0 mm 3 mps 655 mmHg 58%
    17:00 +20°C° 0 mm 2 mps 655 mmHg 61%
    18:00 +19°C° 0 mm 2 mps 655 mmHg 65%
    19:00 +18°C° 0 mm 2 mps 655 mmHg 71%
    20:00 +16°C° 0 mm 2 mps 656 mmHg 77%
    21:00 +15°C° 0 mm 2 mps 656 mmHg 83%
    22:00 +15°C° 0.2 mm 2 mps 656 mmHg 85%
    23:00 +14°C° 0.2 mm 2 mps 657 mmHg 87%
    Show more